Weather History for Brooksville, FL

Change the Weather History Date:

Tuesday, January 22, 2013

  Actual Average Record
Temperature  
Mean Temperature 54 °F -  
Max Temperature 64 °F 67 °F 84 °F (1999)
Min Temperature 43 °F 41 °F 21 °F (2009)
Degree Days  
Heating Degree Days 12    
Growing Degree Days 4 (Base 50)    
Moisture  
Dew Point 37 °F    
Average Humidity 56    
Maximum Humidity 82    
Minimum Humidity 26    
Precipitation  
Precipitation 0.00 in - - ()
Sea Level Pressure  
Sea Level Pressure 30.22 in    
Wind  
Wind Speed 4 mph (NNE)    
Max Wind Speed 12 mph    
Max Gust Speed -    
Visibility 10 miles    
Events      
Averages and records for this station are not official NWS values.
T = Trace of Precipitation, MM = Missing Value Source: NWS Daily Summary

Daily Weather History Graph

Daily Weather History Graph

Search for Another Location

Airport:

Trip Planner

Search our weather history database for the weather conditions in past years. The results will help you decide how hot, cold, wet, or windy it might be!

Date:

Astronomy

Jan. 22, 2013 Rise Set
Actual Time 7:21 AM EST 6:01 PM EST
Civil Twilight 6:56 AM EST 6:26 PM EST
Nautical Twilight 6:28 AM EST 6:55 PM EST
Astronomical Twilight 5:59 AM EST 7:23 PM EST
Moon 2:26 PM EST (1/22) 3:39 AM EST (1/22)
Length of Visible Light 11h 29m
Length of Day
10h 39m
Waxing Gibbous, 82% of the Moon is Illuminated
Jan 22
Waxing Gibbous
Jan 26
Full
Feb 3
Last Quarter
Feb 10
New
Feb 17
First Quarter

Hourly Weather History & Observations

Time (EST) Temp. Dew Point Humidity Pressure Visibility Wind Dir Wind Speed Gust Speed Precip Events Conditions
12:53 AM 55.9 °F 50.0 °F 80% 30.12 in 10.0 mi Calm Calm - N/A   Clear
1:53 AM 54.0 °F 48.0 °F 80% 30.12 in 10.0 mi NNW 3.5 mph - N/A   Clear
2:53 AM 54.0 °F 46.0 °F 75% 30.11 in 10.0 mi North 4.6 mph - N/A   Clear
3:53 AM 54.0 °F 44.1 °F 69% 30.11 in 10.0 mi North 3.5 mph - N/A   Clear
4:53 AM 54.0 °F 43.0 °F 66% 30.12 in 10.0 mi North 3.5 mph - N/A   Clear
5:53 AM 52.0 °F 42.1 °F 69% 30.14 in 10.0 mi Calm Calm - N/A   Clear
6:53 AM 52.0 °F 41.0 °F 66% 30.16 in 10.0 mi North 5.8 mph - N/A   Clear
7:53 AM 52.0 °F 39.9 °F 63% 30.20 in 10.0 mi NNE 8.1 mph - N/A   Clear
8:53 AM 53.1 °F 39.0 °F 59% 30.24 in 10.0 mi North 9.2 mph - N/A   Clear
9:53 AM 55.9 °F 37.0 °F 49% 30.26 in 10.0 mi NNE 9.2 mph - N/A   Clear
10:53 AM 59.0 °F 34.0 °F 39% 30.27 in 10.0 mi NE 11.5 mph - N/A   Clear
11:53 AM 61.0 °F 34.0 °F 36% 30.27 in 10.0 mi NNE 8.1 mph - N/A   Clear
12:53 PM 63.0 °F 32.0 °F 31% 30.25 in 10.0 mi North 9.2 mph - N/A   Clear
1:53 PM 64.0 °F 30.9 °F 29% 30.23 in 10.0 mi NE 10.4 mph - N/A   Clear
2:53 PM 64.0 °F 28.0 °F 26% 30.23 in 10.0 mi NNE 11.5 mph - N/A   Clear
3:53 PM 63.0 °F 27.0 °F 26% 30.24 in 10.0 mi NE 8.1 mph - N/A   Clear
4:53 PM 63.0 °F 28.0 °F 27% 30.25 in 10.0 mi NNE 8.1 mph - N/A   Clear
5:53 PM 59.0 °F 30.9 °F 35% 30.26 in 10.0 mi NE 3.5 mph - N/A   Clear
6:53 PM 53.1 °F 35.1 °F 50% 30.27 in 10.0 mi Calm Calm - N/A   Clear
7:53 PM 50.0 °F 37.9 °F 63% 30.28 in 10.0 mi Calm Calm - N/A   Clear
8:53 PM 46.9 °F 37.9 °F 71% 30.30 in 10.0 mi Calm Calm - N/A   Clear
9:53 PM 43.0 °F 36.0 °F 76% 30.30 in 10.0 mi Calm Calm - N/A   Clear
10:53 PM 43.0 °F 37.9 °F 82% 30.31 in 10.0 mi Calm Calm - N/A   Clear
11:53 PM 44.1 °F 37.9 °F 79% 30.31 in 10.0 mi Calm Calm - N/A   Clear